| time (UTC) | temp C | wind direction | speed KPH | gust KPH | rain 1hr cm | rain 24hr cm | rain mn cm | humidity % | barometer mb |
| 20260505124522 | 21 | 207 | 8.0 | 14.5 | 0.00 | 0.28 | 0.00 | 91 | 1005.5 |
| 20260505123519 | 21 | 204 | 8.0 | 19.3 | 0.00 | 0.28 | 0.00 | 92 | 1005.6 |
| 20260505122540 | 21 | 196 | 8.0 | 22.5 | 0.00 | 0.28 | 0.00 | 92 | 1005.4 |
| 20260505121516 | 21 | 206 | 8.0 | 20.9 | 0.00 | 0.28 | 0.00 | 92 | 1005.5 |
| 20260505120522 | 21 | 216 | 6.4 | 11.3 | 0.00 | 0.28 | 0.00 | 92 | 1005.5 |
| 20260505115524 | 21 | 209 | 6.4 | 11.3 | 0.00 | 0.28 | 0.00 | 92 | 1005.2 |
| 20260505114522 | 20 | 205 | 6.4 | 16.1 | 0.00 | 0.28 | 0.00 | 92 | 1005.2 |
| 20260505113520 | 20 | 205 | 8.0 | 19.3 | 0.00 | 0.28 | 0.00 | 92 | 1005.1 |
| 20260505112522 | 20 | 201 | 6.4 | 12.9 | 0.00 | 0.28 | 0.00 | 92 | 1005.1 |
| 20260505111517 | 20 | 199 | 6.4 | 16.1 | 0.00 | 0.28 | 0.00 | 91 | 1005.2 |
| 20260505110517 | 21 | 202 | 4.8 | 12.9 | 0.00 | 0.28 | 0.00 | 91 | 1005.3 |
| 20260505101517 | 21 | 212 | 6.4 | 20.9 | 0.00 | 0.28 | 0.00 | 89 | 1005.4 |
| 20260505100518 | 21 | 208 | 6.4 | 24.1 | 0.00 | 0.28 | 0.00 | 89 | 1005.3 |
| 20260505095518 | 21 | 210 | 9.7 | 17.7 | 0.00 | 0.28 | 0.00 | 88 | 1005.3 |
| 20260505094518 | 21 | 209 | 8.0 | 16.1 | 0.00 | 0.28 | 0.00 | 88 | 1005.2 |
| 20260505093519 | 21 | 200 | 8.0 | 14.5 | 0.00 | 0.28 | 0.00 | 88 | 1005.2 |
| 20260505092538 | 21 | 205 | 9.7 | 19.3 | 0.00 | 0.28 | 0.00 | 88 | 1005.1 |
| 20260505091518 | 21 | 202 | 9.7 | 30.6 | 0.00 | 0.28 | 0.00 | 88 | 1005.1 |
| 20260505090518 | 21 | 203 | 6.4 | 14.5 | 0.00 | 0.28 | 0.00 | 88 | 1005.2 |
| 20260505085519 | 21 | 204 | 9.7 | 17.7 | 0.00 | 0.28 | 0.00 | 88 | 1005.1 |
| 20260505084520 | 21 | 196 | 9.7 | 17.7 | 0.00 | 0.28 | 0.00 | 88 | 1005.1 |
| 20260505083520 | 21 | 204 | 9.7 | 25.7 | 0.00 | 0.28 | 0.00 | 88 | 1005.3 |
| 20260505082520 | 21 | 197 | 8.0 | 14.5 | 0.00 | 0.28 | 0.00 | 88 | 1005.5 |
| 20260505081519 | 21 | 203 | 6.4 | 17.7 | 0.00 | 0.28 | 0.00 | 88 | 1005.5 |
| 20260505080539 | 21 | 206 | 9.7 | 20.9 | 0.00 | 0.28 | 0.00 | 88 | 1005.6 |
| 20260505075519 | 21 | 199 | 6.4 | 12.9 | 0.00 | 0.28 | 0.00 | 88 | 1005.6 |
| 20260505074537 | 21 | 198 | 11.3 | 20.9 | 0.00 | 0.28 | 0.00 | 88 | 1005.7 |
| 20260505073520 | 21 | 201 | 9.7 | 17.7 | 0.00 | 0.28 | 0.00 | 87 | 1005.8 |
| 20260505072519 | 21 | 203 | 8.0 | 17.7 | 0.00 | 0.28 | 0.00 | 87 | 1005.9 |
| 20260505071520 | 21 | 194 | 9.7 | 19.3 | 0.00 | 0.28 | 0.00 | 86 | 1005.9 |
| 20260505070517 | 21 | 194 | 9.7 | 19.3 | 0.00 | 0.28 | 0.00 | 86 | 1006.2 |
| 20260505065517 | 21 | 202 | 9.7 | 25.7 | 0.00 | 0.28 | 0.00 | 86 | 1006.3 |
| 20260505064541 | 21 | 195 | 8.0 | 14.5 | 0.00 | 0.28 | 0.00 | 85 | 1006.4 |
| 20260505063520 | 21 | 190 | 8.0 | 16.1 | 0.00 | 0.28 | 0.00 | 85 | 1006.5 |
| 20260505062517 | 21 | 187 | 11.3 | 22.5 | 0.00 | 0.28 | 0.00 | 84 | 1006.5 |
| 20260505061517 | 21 | 198 | 9.7 | 19.3 | 0.00 | 0.28 | 0.00 | 84 | 1006.6 |
| 20260505060518 | 21 | 183 | 9.7 | 24.1 | 0.00 | 0.28 | 0.00 | 84 | 1006.6 |
| 20260505055538 | 21 | 191 | 11.3 | 22.5 | 0.00 | 0.28 | 0.00 | 83 | 1006.7 |
| 20260505054522 | 22 | 186 | 9.7 | 20.9 | 0.00 | 0.28 | 0.00 | 83 | 1006.9 |
| 20260505053519 | 22 | 184 | 8.0 | 17.7 | 0.00 | 0.28 | 0.00 | 82 | 1006.9 |
| 20260505052518 | 22 | 185 | 8.0 | 22.5 | 0.00 | 0.28 | 0.00 | 82 | 1006.9 |
| 20260505051521 | 22 | 182 | 8.0 | 16.1 | 0.00 | 0.28 | 0.00 | 81 | 1006.8 |
| 20260505050518 | 22 | 191 | 9.7 | 24.1 | 0.00 | 0.28 | 0.00 | 81 | 1006.8 |
| 20260505041521 | 22 | 183 | 9.7 | 19.3 | 0.00 | 0.28 | 0.28 | 79 | 1007.0 |
| 20260505040516 | 22 | 185 | 9.7 | 17.7 | 0.00 | 0.28 | 0.28 | 80 | 1007.0 |
| 20260505035518 | 22 | 186 | 8.0 | 14.5 | 0.00 | 0.28 | 0.28 | 80 | 1007.1 |
| 20260505034524 | 22 | 180 | 8.0 | 14.5 | 0.00 | 0.28 | 0.28 | 80 | 1007.0 |
| 20260505033523 | 21 | 185 | 6.4 | 16.1 | 0.00 | 0.28 | 0.28 | 80 | 1007.1 |
| 20260505032524 | 21 | 174 | 6.4 | 14.5 | 0.00 | 0.28 | 0.28 | 80 | 1007.3 |
| 20260505031523 | 21 | 181 | 6.4 | 11.3 | 0.00 | 0.28 | 0.28 | 79 | 1007.2 |
| 20260505030537 | 22 | 175 | 6.4 | 11.3 | 0.00 | 0.28 | 0.28 | 79 | 1007.1 |
| 20260505025517 | 22 | 179 | 6.4 | 11.3 | 0.00 | 0.28 | 0.28 | 78 | 1006.9 |
| 20260505024517 | 22 | 182 | 6.4 | 14.5 | 0.00 | 0.28 | 0.28 | 78 | 1007.0 |
| 20260505023518 | 22 | 177 | 4.8 | 11.3 | 0.00 | 0.28 | 0.28 | 78 | 1006.7 |
| 20260505022538 | 22 | 178 | 6.4 | 11.3 | 0.00 | 0.28 | 0.28 | 77 | 1006.8 |
| 20260505021539 | 22 | 177 | 6.4 | 14.5 | 0.00 | 0.28 | 0.28 | 76 | 1006.9 |
| 20260505020519 | 22 | 181 | 6.4 | 11.3 | 0.00 | 0.28 | 0.28 | 76 | 1006.9 |
| 20260505015519 | 22 | 177 | 4.8 | 11.3 | 0.00 | 0.28 | 0.28 | 75 | 1006.8 |
| 20260505014518 | 23 | 176 | 6.4 | 11.3 | 0.00 | 0.28 | 0.28 | 74 | 1006.8 |
| 20260505013517 | 23 | 180 | 6.4 | 12.9 | 0.00 | 0.28 | 0.28 | 73 | 1006.9 |
| 20260505012519 | 23 | 178 | 6.4 | 11.3 | 0.00 | 0.28 | 0.28 | 73 | 1006.8 |
| 20260505011519 | 23 | 182 | 6.4 | 11.3 | 0.00 | 0.28 | 0.28 | 72 | 1006.8 |
| 20260505010517 | 23 | 176 | 6.4 | 16.1 | 0.00 | 0.28 | 0.28 | 71 | 1006.6 |
| 20260505005517 | 23 | 188 | 8.0 | 16.1 | 0.00 | 0.28 | 0.28 | 71 | 1006.7 |
| 20260505004518 | 24 | 180 | 6.4 | 12.9 | 0.00 | 0.28 | 0.28 | 70 | 1006.8 |
| 20260505003521 | 24 | 184 | 6.4 | 12.9 | 0.00 | 0.28 | 0.28 | 70 | 1006.8 |
| 20260505002540 | 25 | 174 | 6.4 | 9.7 | 0.00 | 0.28 | 0.28 | 69 | 1006.9 |
| 20260505001518 | 25 | 180 | 8.0 | 17.7 | 0.00 | 0.28 | 0.28 | 68 | 1006.8 |
| 20260505000517 | 25 | 178 | 8.0 | 16.1 | 0.03 | 0.28 | 0.28 | 68 | 1006.8 |
| 20260504235517 | 25 | 187 | 8.0 | 16.1 | 0.03 | 0.28 | 0.28 | 67 | 1006.8 |
| 20260504234518 | 25 | 180 | 11.3 | 27.4 | 0.03 | 0.28 | 0.28 | 66 | 1006.8 |
| 20260504233539 | 26 | 177 | 9.7 | 19.3 | 0.10 | 0.28 | 0.28 | 65 | 1007.0 |
| 20260504232518 | 26 | 192 | 8.0 | 20.9 | 0.13 | 0.28 | 0.28 | 63 | 1007.1 |
| 20260504231518 | 26 | 180 | 9.7 | 20.9 | 0.10 | 0.25 | 0.25 | 63 | 1007.3 |
| 20260504230518 | 26 | 180 | 8.0 | 17.7 | 0.10 | 0.25 | 0.25 | 63 | 1007.3 |
| 20260504225518 | 26 | 179 | 11.3 | 20.9 | 0.10 | 0.25 | 0.25 | 62 | 1007.3 |
| 20260504224519 | 26 | 179 | 11.3 | 22.5 | 0.10 | 0.25 | 0.25 | 61 | 1007.4 |
| 20260504223519 | 26 | 185 | 11.3 | 27.4 | 0.00 | 0.15 | 0.15 | 61 | 1007.4 |
| 20260504222540 | 26 | 184 | 11.3 | 22.5 | 0.00 | 0.15 | 0.15 | 60 | 1007.5 |
| 20260504221519 | 26 | 183 | 11.3 | 22.5 | 0.00 | 0.15 | 0.15 | 60 | 1007.6 |
| 20260504220540 | 26 | 187 | 11.3 | 20.9 | 0.00 | 0.15 | 0.15 | 60 | 1007.7 |
| 20260504215539 | 26 | 182 | 9.7 | 20.9 | 0.00 | 0.15 | 0.15 | 61 | 1007.7 |
| 20260504214517 | 26 | 172 | 11.3 | 19.3 | 0.00 | 0.15 | 0.15 | 60 | 1007.9 |
| 20260504213520 | 26 | 191 | 9.7 | 16.1 | 0.00 | 0.15 | 0.15 | 60 | 1007.9 |
| 20260504212521 | 26 | 190 | 9.7 | 17.7 | 0.00 | 0.15 | 0.15 | 60 | 1008.1 |
| 20260504211520 | 26 | 181 | 11.3 | 25.7 | 0.00 | 0.15 | 0.15 | 59 | 1008.4 |
| 20260504210517 | 26 | 177 | 11.3 | 22.5 | 0.00 | 0.15 | 0.15 | 58 | 1008.6 |
| 20260504205517 | 26 | 179 | 9.7 | 16.1 | 0.00 | 0.15 | 0.15 | 59 | 1008.8 |
| 20260504204518 | 26 | 201 | 9.7 | 16.1 | 0.00 | 0.15 | 0.15 | 58 | 1009.1 |
| 20260504203521 | 26 | 189 | 11.3 | 24.1 | 0.00 | 0.15 | 0.15 | 57 | 1009.3 |
| 20260504202518 | 26 | 189 | 8.0 | 20.9 | 0.00 | 0.15 | 0.15 | 57 | 1009.5 |
| 20260504201538 | 26 | 178 | 11.3 | 22.5 | 0.00 | 0.15 | 0.15 | 57 | 1009.6 |
| 20260504200518 | 26 | 193 | 9.7 | 17.7 | 0.00 | 0.15 | 0.15 | 56 | 1009.8 |
| 20260504195518 | 26 | 181 | 11.3 | 17.7 | 0.00 | 0.15 | 0.15 | 57 | 1009.9 |
| 20260504194519 | 26 | 190 | 11.3 | 22.5 | 0.00 | 0.15 | 0.15 | 55 | 1010.2 |
| 20260504193519 | 26 | 198 | 8.0 | 16.1 | 0.00 | 0.15 | 0.15 | 57 | 1010.4 |
| 20260504192520 | 26 | 190 | 9.7 | 19.3 | 0.00 | 0.15 | 0.15 | 55 | 1010.4 |
| 20260504191519 | 26 | 192 | 9.7 | 20.9 | 0.00 | 0.15 | 0.15 | 55 | 1010.6 |
| 20260504190539 | 25 | 196 | 9.7 | 19.3 | 0.00 | 0.15 | 0.15 | 56 | 1010.7 |
| 20260504185519 | 25 | 203 | 9.7 | 22.5 | 0.03 | 0.15 | 0.15 | 56 | 1010.7 |
| 20260504184516 | 25 | 213 | 8.0 | 19.3 | 0.03 | 0.15 | 0.15 | 56 | 1011.0 |
| 20260504183520 | 25 | 182 | 11.3 | 20.9 | 0.03 | 0.15 | 0.15 | 56 | 1011.0 |
| 20260504182540 | 25 | 197 | 8.0 | 16.1 | 0.05 | 0.15 | 0.15 | 58 | 1011.0 |
| 20260504181519 | 25 | 175 | 9.7 | 22.5 | 0.05 | 0.15 | 0.15 | 58 | 1011.3 |
| 20260504180521 | 25 | 177 | 11.3 | 20.9 | 0.03 | 0.15 | 0.15 | 58 | 1011.4 |
| 20260504175518 | 24 | 181 | 11.3 | 22.5 | 0.05 | 0.13 | 0.13 | 57 | 1011.6 |
| 20260504174538 | 24 | 208 | 9.7 | 19.3 | 0.03 | 0.13 | 0.13 | 57 | 1011.8 |
| 20260504173520 | 24 | 200 | 9.7 | 20.9 | 0.05 | 0.13 | 0.13 | 58 | 1012.0 |
| 20260504172521 | 24 | 203 | 11.3 | 25.7 | 0.05 | 0.10 | 0.10 | 57 | 1012.2 |
| 20260504171518 | 24 | 201 | 6.4 | 17.7 | 0.08 | 0.10 | 0.10 | 60 | 1012.5 |
| 20260504170538 | 23 | 202 | 8.0 | 20.9 | 0.08 | 0.10 | 0.10 | 59 | 1012.6 |
| 20260504150521 | 20 | 197 | 12.9 | 29.0 | 0.00 | 0.00 | 0.00 | 66 | 1013.7 |
| 20260504140538 | 19 | 216 | 8.0 | 17.7 | 0.00 | 0.00 | 0.00 | 72 | 1013.9 |